Regional Weather Roundup
Issued by NWS Northern Indiana

Home | Current Version | Previous Version | Graphics & Text | Print | Product List | Glossary On
Versions: 1 2 3 4 5 6 7 8 9 10 11 12 13 14 15 16 17 18 19 20 21 22 23 24 25 26 27 28 29 30 31 32 33 34 35 36 37 38 39 40 41 42 43 44 45 46 47 48 49 50
161
ASUS43 KIWX 272010
RWRIWX

KIWX WEATHER ROUNDUP
NATIONAL WEATHER SERVICE NORTHERN INDIANA
400 PM EDT WED JUL 27 2016

NOTE: "FAIR" INDICATES FEW OR NO CLOUDS BELOW 12,000 FEET WITH NO
SIGNIFICANT WEATHER AND/OR OBSTRUCTIONS TO VISIBILITY.

* THESE STATIONS ARE NOT UNDER NWS QUALITY CONTROL. THEY ALSO MAY NOT
  REPORT WEATHER SUCH AS PRECIPITATION OR FOG.

INZ001>027-272100-
NORTHERN INDIANA

CITY           SKY/WX    TMP DP  RH WIND       PRES   REMARKS
GARY*          MOSUNNY   88  68  51 NE7       29.97F
VALPARAISO     MOSUNNY   87  66  49 MISG      29.98F
MICHIGAN CITY* SUNNY     82  64  54 N6        29.99S
LAPORTE*       SUNNY     88  66  48 CALM      29.99F
KNOX*          SUNNY     84  52  32 W3        29.98F
SOUTH BEND     MOSUNNY   87  67  51 NW5       29.98F
ELKHART*       MOSUNNY   88  66  48 W7        29.98F
GOSHEN         MOSUNNY   87  60  40 VRB5      29.97F
MONTICELLO*    SUNNY     85  62  46 NW5       29.97F
LOGANSPORT*    SUNNY     86  63  45 N5        29.98F
ROCHESTER*     SUNNY     88  64  45 N3        29.98F
WARSAW*        SUNNY     86  63  45 NW5       29.98F
ANGOLA*          N/A     88  64  45 VRB7      29.98F
FORT WAYNE     MOSUNNY   88  60  38 SW8G17    29.98F
HUNTINGTON*    MOSUNNY   85  60  42 N5        29.98F
PERU/GRISSOM   SUNNY     86  64  46 W9        29.97F
MARION*        SUNNY     85  61  44 N5        29.99F

$$
INZ028>050-272100-
CENTRAL INDIANA

CITY           SKY/WX    TMP DP  RH WIND       PRES   REMARKS
LAFAYETTE      SUNNY     87  66  49 CALM      29.97F
KOKOMO*        SUNNY     88  63  42 N5        29.98F
MUNCIE*        SUNNY     88  61  40 VRB7      29.99F
INDIANAPOLIS   MOSUNNY   90  63  40 N7        29.99F

$$
MIZ043>046-050>051-056>058-064>065-071>073-077>080-272100-
SOUTHWEST LOWER MICHIGAN

CITY           SKY/WX    TMP DP  RH WIND       PRES   REMARKS
BATTLE CREEK   SUNNY     83  64  52 VRB6      29.99F
BENTON HARBOR  SUNNY     84  65  52 NW7       29.98F
COLDWATER*     SUNNY     85  60  42 N5        29.98F
HILLSDALE*     SUNNY     86  60  42 CALM      29.99F
HOLLAND        SUNNY     84  68  58 W9        29.99F
GRAND RAPIDS   PTSUNNY   86  66  51 SW12      29.97F
KALAMAZOO      MOSUNNY   85  64  49 NW6       29.98F
STURGIS*       SUNNY     86  60  42 W5        29.98F
THREE RIVERS*  FAIR      88  58  35 NW3       29.97F

$$
OHZ001>008-015>018-024>025-272100-
NORTHWEST OHIO

CITY           SKY/WX    TMP DP  RH WIND       PRES   REMARKS
DEFIANCE       MOSUNNY   89  60  37 S5        29.96F
FINDLAY        MOSUNNY   90  56  31 W8        29.96F
TOLEDO EXPRESS MOSUNNY   87  62  43 SW6       29.96F
TOLEDO METCALF MOSUNNY   90  60  36 SW7       29.96F
LIMA           MOSUNNY   87  64  46 VRB3      29.97F

$$
AND FOR LAKE MICHIGAN COASTAL AND OPEN LAKE BUOY OBSERVATIONS

STATION/POSITION TEMP    WIND        PRES    VSBY  WAVE
                 AIR SEA DIR/SP/G                  HT/PER
                 (F)     (DEG/KT/KT) (MB)    (MI)  (FT/S)
CALUMET HARBOR    80      40/  6/ 10 1014.5
MICHIGAN CITY     78     360/  6/  6   N/A
BURNS HARBOR      80      60/  8/  8 1015.9F
SAINT JOSEPH      82     290/  4/  4 1015.6F
SOUTH LAKE BUOY   77 77  160/  6/  6 1014.2F         0
4 MI NW BRIDGMAN  78     330/  4/  4 1014.8F         0
MICHIGAN CITY     79 78   50/  6/  6   N/A           0

$$
&&




USA.gov is the U.S. government's official web portal to all federal, state and local government web resources and services.